QPF
0.06 0.04 0.03 0.02 0.02 0.03 0.04 0.05 0.05 0.05 0.06 0.06 0.05 0.04 0.05 0.06 0.04 0.03 0.04 0.04 0.04 0.06 0.07 0.07 0.06 0.06 0.05 0.05 0.06 0.07 0.06 0.06 0.06 0.07 0.07 0.07 0.07 0.08 0.08 0.08 0.08 0.08 0.07
0.06 0.05 0.03 0.02 0.02 0.02 0.02 0.03 0.04 0.04 0.06 0.07 0.06 0.06 0.08 0.08 0.07 0.05 0.05 0.05 0.05 0.06 0.07 0.08 0.08 0.07 0.06 0.06 0.05 0.05 0.05 0.04 0.05 0.06 0.06 0.06 0.06 0.06 0.08 0.09 0.09 0.08 0.06
0.07 0.05 0.04 0.03 0.03 0.03 0.03 0.02 0.02 0.03 0.03 0.04 0.05 0.05 0.06 0.07 0.08 0.09 0.10 0.11 0.10 0.10 0.11 0.11 0.11 0.10 0.09 0.07 0.06 0.05 0.04 0.04 0.04 0.05 0.06 0.06 0.07 0.06 0.07 0.06 0.06 0.06 0.06
0.09 0.07 0.06 0.05 0.04 0.04 0.04 0.03 0.03 0.03 0.03 0.03 0.04 0.04 0.04 0.05 0.05 0.07 0.09 0.12 0.16 0.18 0.17 0.15 0.12 0.10 0.08 0.07 0.05 0.05 0.05 0.04 0.04 0.05 0.05 0.05 0.06 0.06 0.06 0.05 0.05 0.05 0.05
0.10 0.09 0.09 0.07 0.06 0.04 0.04 0.03 0.03 0.04 0.04 0.04 0.04 0.04 0.04 0.03 0.04 0.06 0.09 0.11 0.13 0.16 0.17 0.15 0.12 0.09 0.07 0.06 0.05 0.04 0.05 0.05 0.05 0.06 0.05 0.04 0.03 0.04 0.05 0.05 0.04 0.04 0.04
0.08 0.08 0.08 0.07 0.06 0.06 0.04 0.05 0.04 0.05 0.05 0.06 0.06 0.06 0.05 0.04 0.05 0.09 0.11 0.12 0.11 0.11 0.12 0.12 0.10 0.07 0.07 0.06 0.06 0.05 0.05 0.06 0.06 0.06 0.06 0.05 0.04 0.03 0.04 0.04 0.04 0.04 0.04
0.07 0.07 0.06 0.06 0.05 0.05 0.05 0.06 0.06 0.07 0.07 0.08 0.09 0.08 0.08 0.07 0.06 0.06 0.06 0.08 0.08 0.08 0.09 0.10 0.10 0.07 0.05 0.06 0.05 0.05 0.05 0.06 0.06 0.06 0.05 0.06 0.06 0.05 0.04 0.04 0.04 0.03 0.03
0.07 0.07 0.07 0.07 0.06 0.06 0.06 0.06 0.06 0.07 0.06 0.07 0.07 0.06 0.04 0.03 0.03 0.03 0.03 0.03 0.04 0.05 0.06 0.06 0.06 0.05 0.03 0.03 0.03 0.05 0.05 0.05 0.05 0.06 0.05 0.05 0.05 0.06 0.06 0.05 0.05 0.04 0.04
0.07 0.08 0.08 0.09 0.09 0.08 0.07 0.08 0.09 0.08 0.07 0.06 0.06 0.06 0.04 0.02 0.02 0.02 0.02 0.02 0.02 0.03 0.03 0.04 0.05 0.04 0.03 0.02 0.02 0.02 0.03 0.03 0.05 0.06 0.06 0.06 0.05 0.05 0.05 0.05 0.05 0.05 0.05
0.07 0.08 0.09 0.10 0.10 0.10 0.09 0.07 0.07 0.07 0.07 0.06 0.05 0.04 0.04 0.03 0.03 0.02 0.02 0.03 0.03 0.03 0.03 0.03 0.04 0.04 0.03 0.03 0.02 0.02 0.02 0.02 0.03 0.05 0.06 0.06 0.05 0.05 0.05 0.05 0.05 0.04 0.04
0.05 0.07 0.09 0.11 0.11 0.12 0.15 0.14 0.11 0.08 0.06 0.05 0.05 0.04 0.03 0.03 0.03 0.03 0.02 0.03 0.03 0.03 0.04 0.05 0.04 0.04 0.04 0.03 0.03 0.02 0.02 0.02 0.02 0.03 0.04 0.05 0.05 0.05 0.05 0.05 0.05 0.06 0.06
0.03 0.04 0.05 0.07 0.09 0.09 0.09 0.13 0.16 0.14 0.09 0.06 0.05 0.03 0.02 0.02 0.02 0.03 0.03 0.02 0.02 0.03 0.04 0.04 0.04 0.04 0.05 0.04 0.03 0.03 0.03 0.02 0.03 0.04 0.05 0.03 0.03 0.04 0.03 0.03 0.03 0.05 0.06
0.04 0.04 0.03 0.03 0.04 0.05 0.05 0.06 0.08 0.10 0.09 0.07 0.05 0.03 0.03 0.03 0.02 0.03 0.04 0.03 0.03 0.03 0.04 0.04 0.03 0.03 0.03 0.04 0.03 0.03 0.03 0.02 0.02 0.03 0.03 0.02 0.02 0.02 0.02 0.03 0.03 0.04 0.04
0.04 0.04 0.04 0.03 0.02 0.03 0.03 0.03 0.03 0.05 0.06 0.06 0.05 0.04 0.04 0.04 0.04 0.04 0.05 0.08 0.06 0.04 0.04 0.03 0.03 0.04 0.03 0.03 0.03 0.03 0.02 0.02 0.02 0.02 0.02 0.02 0.01 0.01 0.01 0.02 0.02 0.04 0.05
0.04 0.03 0.03 0.03 0.02 0.02 0.02 0.02 0.02 0.03 0.04 0.05 0.05 0.05 0.05 0.05 0.06 0.05 0.06 0.09 0.10 0.07 0.05 0.04 0.05 0.05 0.04 0.04 0.03 0.03 0.03 0.03 0.03 0.03 0.02 0.02 0.02 0.02 0.02 0.03 0.02 0.02 0.03
0.03 0.03 0.02 0.02 0.03 0.02 0.02 0.02 0.03 0.04 0.04 0.04 0.04 0.04 0.05 0.05 0.06 0.07 0.07 0.07 0.08 0.07 0.06 0.05 0.06 0.07 0.05 0.04 0.04 0.03 0.03 0.04 0.03 0.03 0.03 0.03 0.03 0.03 0.03 0.02 0.02 0.02 0.02
0.03 0.03 0.03 0.03 0.03 0.03 0.03 0.04 0.04 0.05 0.04 0.04 0.04 0.04 0.04 0.06 0.07 0.06 0.06 0.06 0.05 0.05 0.05 0.05 0.07 0.08 0.08 0.08 0.06 0.04 0.03 0.03 0.03 0.03 0.03 0.03 0.03 0.03 0.04 0.03 0.03 0.02 0.02
0.02 0.03 0.03 0.03 0.03 0.04 0.04 0.05 0.05 0.05 0.04 0.03 0.03 0.04 0.04 0.06 0.05 0.04 0.04 0.05 0.05 0.05 0.05 0.05 0.06 0.06 0.08 0.10 0.08 0.05 0.04 0.03 0.03 0.03 0.03 0.03 0.03 0.02 0.03 0.03 0.03 0.03 0.03
0.02 0.03 0.03 0.04 0.04 0.04 0.05 0.05 0.05 0.04 0.03 0.03 0.02 0.02 0.03 0.03 0.02 0.03 0.04 0.04 0.04 0.04 0.04 0.04 0.03 0.04 0.05 0.06 0.06 0.05 0.05 0.05 0.04 0.03 0.03 0.02 0.02 0.02 0.02 0.02 0.02 0.02 0.03
0.02 0.02 0.03 0.04 0.03 0.03 0.04 0.03 0.03 0.03 0.02 0.02 0.02 0.02 0.03 0.02 0.02 0.02 0.02 0.02 0.02 0.02 0.02 0.03 0.02 0.02 0.03 0.04 0.05 0.04 0.03 0.03 0.03 0.02 0.03 0.03 0.02 0.02 0.01 0.01 0.01 0.01 0.01
0.01 0.01 0.02 0.02 0.02 0.02 0.03 0.03 0.03 0.03 0.03 0.03 0.03 0.03 0.02 0.02 0.01 0.00 0.00 0.01 0.01 0.01 0.02 0.02 0.02 0.01 0.02 0.04 0.04 0.04 0.03 0.02 0.02 0.02 0.03 0.03 0.03 0.02 0.02 0.01 0.01 0.01 0.01
0.01 0.01 0.01 0.01 0.02 0.02 0.02 0.02 0.02 0.03 0.03 0.03 0.03 0.03 0.02 0.02 0.01 0.01 0.01 0.01 0.02 0.02 0.02 0.02 0.02 0.01 0.01 0.02 0.04 0.04 0.03 0.03 0.02 0.02 0.02 0.02 0.03 0.03 0.02 0.02 0.02 0.01 0.01
0.01 0.02 0.01 0.01 0.01 0.01 0.02 0.02 0.02 0.02 0.03 0.03 0.03 0.02 0.02 0.02 0.02 0.01 0.01 0.01 0.01 0.01 0.02 0.02 0.02 0.01 0.01 0.03 0.04 0.04 0.03 0.04 0.03 0.02 0.03 0.02 0.02 0.02 0.02 0.02 0.02 0.01 0.01
0.02 0.02 0.01 0.01 0.01 0.01 0.02 0.02 0.02 0.02 0.03 0.03 0.02 0.02 0.02 0.02 0.02 0.02 0.01 0.01 0.01 0.01 0.01 0.02 0.02 0.02 0.01 0.03 0.04 0.04 0.04 0.03 0.04 0.04 0.03 0.03 0.02 0.02 0.02 0.02 0.02 0.01 0.01
0.02 0.01 0.01 0.01 0.01 0.01 0.02 0.02 0.03 0.04 0.05 0.04 0.03 0.02 0.02 0.03 0.03 0.03 0.02 0.01 0.01 0.01 0.01 0.02 0.01 0.01 0.01 0.03 0.03 0.03 0.04 0.05 0.04 0.05 0.03 0.03 0.02 0.03 0.03 0.02 0.02 0.02 0.01
0.02 0.01 0.01 0.01 0.01 0.01 0.02 0.02 0.03 0.04 0.05 0.04 0.04 0.03 0.03 0.03 0.04 0.03 0.02 0.02 0.01 0.01 0.01 0.01 0.01 0.01 0.02 0.04 0.04 0.02 0.03 0.04 0.04 0.03 0.03 0.02 0.02 0.04 0.04 0.04 0.03 0.02 0.02
MSLP
1012.79 1012.85 1012.82 1012.73 1012.63 1012.54 1012.51 1012.51 1012.55 1012.60 1012.61 1012.57 1012.46 1012.27 1012.03 1011.76 1011.50 1011.27 1011.09 1010.97 1010.92 1010.91 1010.93 1010.98 1011.03 1011.09 1011.14 1011.19 1011.25 1011.32 1011.40 1011.50 1011.61 1011.74 1011.89 1012.04 1012.18 1012.32 1012.44 1012.55 1012.64 1012.72 1012.82
1012.54 1012.57 1012.54 1012.48 1012.42 1012.39 1012.39 1012.42 1012.46 1012.49 1012.47 1012.39 1012.23 1012.01 1011.73 1011.43 1011.13 1010.86 1010.64 1010.48 1010.39 1010.34 1010.33 1010.35 1010.39 1010.45 1010.51 1010.58 1010.65 1010.75 1010.86 1010.98 1011.13 1011.29 1011.47 1011.64 1011.81 1011.96 1012.09 1012.19 1012.26 1012.33 1012.40
1012.29 1012.31 1012.30 1012.30 1012.30 1012.34 1012.39 1012.45 1012.50 1012.50 1012.45 1012.32 1012.11 1011.84 1011.52 1011.18 1010.84 1010.53 1010.26 1010.04 1009.88 1009.77 1009.70 1009.67 1009.68 1009.71 1009.76 1009.84 1009.93 1010.04 1010.18 1010.34 1010.52 1010.72 1010.93 1011.14 1011.35 1011.53 1011.68 1011.79 1011.87 1011.94 1012.00
1012.09 1012.11 1012.14 1012.20 1012.28 1012.38 1012.49 1012.58 1012.63 1012.61 1012.52 1012.34 1012.08 1011.76 1011.40 1011.02 1010.63 1010.27 1009.94 1009.66 1009.42 1009.23 1009.09 1008.99 1008.94 1008.93 1008.96 1009.03 1009.12 1009.24 1009.40 1009.58 1009.78 1010.02 1010.26 1010.52 1010.77 1011.00 1011.19 1011.35 1011.46 1011.55 1011.63
1011.96 1011.99 1012.06 1012.18 1012.34 1012.50 1012.66 1012.77 1012.81 1012.76 1012.61 1012.38 1012.08 1011.71 1011.32 1010.90 1010.48 1010.07 1009.69 1009.33 1009.01 1008.74 1008.51 1008.33 1008.22 1008.15 1008.15 1008.18 1008.26 1008.38 1008.53 1008.72 1008.94 1009.20 1009.48 1009.78 1010.08 1010.36 1010.62 1010.84 1011.02 1011.16 1011.28
1011.91 1011.95 1012.06 1012.22 1012.43 1012.64 1012.81 1012.92 1012.94 1012.85 1012.65 1012.37 1012.02 1011.63 1011.20 1010.76 1010.31 1009.87 1009.43 1009.01 1008.61 1008.26 1007.95 1007.69 1007.51 1007.39 1007.34 1007.34 1007.39 1007.49 1007.62 1007.80 1008.02 1008.28 1008.59 1008.92 1009.27 1009.62 1009.95 1010.25 1010.51 1010.72 1010.90
1011.91 1011.95 1012.07 1012.26 1012.49 1012.70 1012.87 1012.95 1012.93 1012.79 1012.55 1012.22 1011.83 1011.41 1010.97 1010.51 1010.04 1009.57 1009.10 1008.62 1008.16 1007.73 1007.35 1007.03 1006.79 1006.62 1006.52 1006.49 1006.51 1006.58 1006.69 1006.84 1007.04 1007.30 1007.60 1007.96 1008.35 1008.76 1009.17 1009.55 1009.90 1010.20 1010.45
1011.92 1011.95 1012.06 1012.23 1012.44 1012.62 1012.75 1012.78 1012.70 1012.51 1012.22 1011.86 1011.44 1011.01 1010.55 1010.09 1009.62 1009.12 1008.61 1008.10 1007.59 1007.10 1006.66 1006.29 1006.00 1005.80 1005.67 1005.61 1005.60 1005.64 1005.72 1005.84 1006.01 1006.25 1006.55 1006.91 1007.33 1007.79 1008.26 1008.73 1009.16 1009.54 1009.88
1011.90 1011.88 1011.95 1012.07 1012.22 1012.34 1012.40 1012.37 1012.22 1011.97 1011.64 1011.25 1010.82 1010.38 1009.93 1009.47 1008.99 1008.48 1007.94 1007.39 1006.83 1006.30 1005.83 1005.42 1005.11 1004.88 1004.74 1004.66 1004.64 1004.66 1004.71 1004.80 1004.94 1005.15 1005.43 1005.79 1006.23 1006.72 1007.24 1007.77 1008.27 1008.73 1009.14
1011.79 1011.71 1011.71 1011.75 1011.82 1011.86 1011.83 1011.72 1011.51 1011.21 1010.84 1010.44 1010.01 1009.57 1009.13 1008.67 1008.18 1007.65 1007.09 1006.50 1005.90 1005.34 1004.83 1004.40 1004.07 1003.84 1003.70 1003.62 1003.59 1003.60 1003.64 1003.70 1003.82 1004.01 1004.27 1004.62 1005.06 1005.56 1006.12 1006.69 1007.24 1007.77 1008.24
1011.57 1011.42 1011.34 1011.30 1011.26 1011.21 1011.10 1010.91 1010.64 1010.30 1009.91 1009.50 1009.08 1008.66 1008.22 1007.76 1007.26 1006.71 1006.12 1005.49 1004.85 1004.25 1003.71 1003.26 1002.92 1002.69 1002.55 1002.48 1002.45 1002.46 1002.50 1002.56 1002.66 1002.83 1003.08 1003.42 1003.85 1004.36 1004.92 1005.52 1006.12 1006.68 1007.21
1011.24 1011.03 1010.87 1010.75 1010.64 1010.49 1010.30 1010.05 1009.73 1009.37 1008.97 1008.56 1008.15 1007.74 1007.32 1006.86 1006.34 1005.77 1005.13 1004.46 1003.78 1003.13 1002.55 1002.07 1001.71 1001.47 1001.33 1001.26 1001.25 1001.26 1001.30 1001.37 1001.47 1001.64 1001.88 1002.21 1002.63 1003.14 1003.71 1004.32 1004.94 1005.53 1006.10
1010.84 1010.59 1010.39 1010.21 1010.03 1009.83 1009.58 1009.28 1008.93 1008.54 1008.14 1007.74 1007.35 1006.95 1006.53 1006.06 1005.54 1004.93 1004.26 1003.53 1002.80 1002.09 1001.46 1000.94 1000.54 1000.26 1000.10 1000.03 1000.02 1000.04 1000.09 1000.17 1000.28 1000.45 1000.70 1001.03 1001.45 1001.96 1002.53 1003.13 1003.76 1004.38 1004.97
1010.44 1010.19 1009.98 1009.78 1009.57 1009.34 1009.05 1008.72 1008.34 1007.94 1007.54 1007.15 1006.76 1006.37 1005.95 1005.48 1004.94 1004.30 1003.58 1002.81 1002.01 1001.25 1000.55 999.95 999.49 999.17 998.97 998.86 998.83 998.85 998.91 999.00 999.13 999.31 999.57 999.91 1000.33 1000.83 1001.39 1002.00 1002.63 1003.26 1003.87
1010.10 1009.90 1009.72 1009.54 1009.34 1009.10 1008.80 1008.45 1008.06 1007.65 1007.24 1006.83 1006.45 1006.05 1005.63 1005.15 1004.59 1003.93 1003.18 1002.35 1001.50 1000.66 999.88 999.21 998.66 998.26 997.99 997.83 997.76 997.76 997.81 997.90 998.05 998.25 998.51 998.86 999.28 999.77 1000.33 1000.93 1001.56 1002.20 1002.83
1009.90 1009.78 1009.67 1009.55 1009.39 1009.17 1008.87 1008.51 1008.10 1007.67 1007.23 1006.81 1006.41 1006.00 1005.57 1005.08 1004.50 1003.82 1003.04 1002.18 1001.27 1000.36 999.49 998.73 998.08 997.58 997.22 996.99 996.86 996.81 996.84 996.93 997.07 997.27 997.55 997.89 998.31 998.79 999.33 999.92 1000.55 1001.19 1001.84
1009.87 1009.86 1009.85 1009.81 1009.70 1009.51 1009.22 1008.85 1008.42 1007.95 1007.48 1007.03 1006.59 1006.16 1005.71 1005.20 1004.62 1003.92 1003.12 1002.23 1001.27 1000.30 999.36 998.50 997.75 997.15 996.68 996.36 996.15 996.05 996.03 996.09 996.22 996.42 996.68 997.00 997.40 997.86 998.38 998.94 999.55 1000.19 1000.86
1010.02 1010.12 1010.21 1010.25 1010.20 1010.03 1009.75 1009.37 1008.90 1008.40 1007.88 1007.38 1006.90 1006.43 1005.95 1005.43 1004.83 1004.13 1003.32 1002.41 1001.43 1000.41 999.41 998.46 997.63 996.92 996.35 995.93 995.64 995.47 995.40 995.42 995.51 995.67 995.90 996.19 996.54 996.96 997.43 997.97 998.55 999.18 999.85
1010.30 1010.50 1010.67 1010.77 1010.76 1010.61 1010.33 1009.93 1009.43 1008.88 1008.31 1007.76 1007.23 1006.72 1006.21 1005.66 1005.06 1004.35 1003.54 1002.62 1001.63 1000.58 999.54 998.54 997.62 996.84 996.18 995.68 995.31 995.07 994.93 994.90 994.94 995.05 995.21 995.44 995.73 996.08 996.50 996.98 997.53 998.14 998.80
1010.66 1010.91 1011.13 1011.26 1011.26 1011.12 1010.83 1010.40 1009.87 1009.28 1008.66 1008.06 1007.48 1006.93 1006.38 1005.82 1005.20 1004.49 1003.69 1002.78 1001.78 1000.74 999.67 998.64 997.69 996.85 996.13 995.56 995.13 994.82 994.62 994.52 994.49 994.53 994.63 994.77 994.98 995.25 995.58 996.00 996.49 997.07 997.72
1011.02 1011.28 1011.50 1011.62 1011.61 1011.45 1011.14 1010.69 1010.14 1009.51 1008.86 1008.22 1007.60 1007.01 1006.44 1005.85 1005.21 1004.51 1003.71 1002.82 1001.84 1000.81 999.76 998.73 997.76 996.90 996.16 995.55 995.06 994.70 994.45 994.28 994.18 994.13 994.14 994.19 994.30 994.47 994.72 995.06 995.50 996.03 996.67
1011.32 1011.55 1011.72 1011.80 1011.75 1011.57 1011.23 1010.77 1010.20 1009.56 1008.89 1008.22 1007.58 1006.96 1006.35 1005.73 1005.09 1004.37 1003.59 1002.71 1001.77 1000.77 999.75 998.75 997.81 996.96 996.22 995.60 995.09 994.69 994.38 994.15 993.97 993.84 993.76 993.71 993.72 993.80 993.96 994.22 994.60 995.09 995.69
1011.55 1011.69 1011.79 1011.80 1011.70 1011.47 1011.11 1010.64 1010.06 1009.42 1008.75 1008.08 1007.42 1006.77 1006.14 1005.50 1004.83 1004.11 1003.33 1002.48 1001.57 1000.62 999.66 998.72 997.83 997.02 996.30 995.69 995.17 994.75 994.40 994.10 993.86 993.65 993.48 993.35 993.27 993.27 993.35 993.55 993.86 994.31 994.88
1011.69 1011.74 1011.74 1011.67 1011.50 1011.23 1010.85 1010.37 1009.80 1009.18 1008.52 1007.84 1007.17 1006.51 1005.85 1005.17 1004.48 1003.75 1002.97 1002.14 1001.27 1000.38 999.48 998.61 997.79 997.04 996.37 995.78 995.27 994.83 994.45 994.11 993.80 993.52 993.28 993.08 992.94 992.87 992.91 993.05 993.33 993.74 994.27
1011.78 1011.73 1011.64 1011.48 1011.25 1010.93 1010.53 1010.05 1009.50 1008.89 1008.24 1007.57 1006.89 1006.20 1005.51 1004.80 1004.07 1003.32 1002.53 1001.72 1000.89 1000.06 999.24 998.45 997.71 997.02 996.40 995.84 995.34 994.89 994.48 994.09 993.74 993.41 993.12 992.88 992.70 992.60 992.61 992.73 992.98 993.36 993.87
1011.86 1011.72 1011.54 1011.31 1011.02 1010.66 1010.24 1009.76 1009.22 1008.62 1007.98 1007.31 1006.62 1005.90 1005.17 1004.41 1003.65 1002.86 1002.06 1001.26 1000.47 999.69 998.93 998.22 997.55 996.93 996.36 995.83 995.33 994.87 994.43 994.01 993.62 993.26 992.94 992.67 992.48 992.39 992.40 992.52 992.77 993.14 993.62
Thickness
5730 5729 5728 5727 5726 5724 5722 5720 5719 5717 5716 5715 5714 5712 5711 5710 5708 5708 5707 5706 5706 5706 5706 5705 5705 5703 5702 5701 5701 5700 5699 5699 5699 5699 5698 5698 5698 5698 5698 5699 5698 5698 5698
5726 5725 5723 5723 5721 5720 5718 5716 5713 5712 5710 5710 5709 5708 5707 5706 5705 5704 5703 5702 5702 5701 5701 5701 5701 5700 5698 5698 5697 5696 5695 5695 5695 5695 5695 5695 5695 5695 5695 5695 5695 5694 5695
5722 5720 5718 5717 5716 5715 5713 5710 5708 5706 5705 5704 5703 5703 5702 5702 5701 5700 5699 5697 5697 5697 5697 5697 5696 5695 5694 5694 5693 5692 5692 5692 5692 5692 5692 5691 5691 5691 5691 5691 5691 5691 5691
5718 5715 5713 5711 5710 5709 5707 5704 5702 5699 5697 5696 5696 5697 5697 5696 5696 5695 5695 5694 5693 5693 5693 5693 5692 5691 5690 5690 5689 5689 5689 5688 5688 5688 5688 5688 5687 5687 5687 5687 5688 5687 5687
5713 5711 5708 5707 5706 5703 5701 5698 5696 5693 5691 5689 5689 5691 5691 5690 5690 5690 5690 5690 5690 5689 5688 5688 5688 5687 5686 5686 5686 5686 5685 5685 5684 5684 5684 5684 5684 5684 5683 5683 5684 5684 5684
5708 5706 5703 5702 5700 5697 5694 5691 5689 5687 5685 5684 5684 5684 5685 5685 5685 5685 5685 5685 5685 5684 5684 5683 5683 5683 5682 5682 5681 5681 5682 5681 5681 5681 5681 5681 5681 5680 5680 5679 5679 5680 5680
5703 5700 5698 5696 5694 5692 5689 5686 5683 5680 5679 5677 5674 5674 5677 5679 5680 5680 5679 5679 5679 5679 5679 5679 5678 5678 5678 5678 5678 5678 5678 5677 5677 5678 5678 5678 5677 5677 5676 5676 5676 5676 5676
5697 5696 5693 5690 5688 5686 5683 5680 5677 5674 5672 5671 5666 5663 5662 5665 5670 5674 5672 5672 5673 5674 5674 5674 5674 5674 5673 5673 5674 5673 5673 5673 5673 5673 5674 5674 5673 5673 5673 5672 5672 5672 5672
5691 5690 5687 5685 5683 5680 5676 5674 5671 5668 5664 5664 5662 5657 5653 5653 5657 5663 5665 5666 5667 5667 5668 5669 5670 5670 5670 5669 5668 5668 5668 5668 5668 5668 5669 5669 5669 5669 5669 5668 5668 5668 5668
5684 5683 5681 5679 5676 5674 5671 5668 5667 5664 5660 5657 5656 5654 5652 5652 5649 5650 5655 5658 5660 5661 5662 5663 5664 5665 5665 5665 5664 5664 5664 5664 5663 5664 5664 5664 5664 5664 5664 5664 5663 5663 5663
5677 5675 5674 5673 5670 5668 5666 5664 5662 5659 5656 5653 5651 5649 5648 5646 5645 5641 5643 5648 5651 5654 5656 5657 5658 5659 5660 5660 5660 5660 5659 5659 5659 5659 5659 5659 5659 5659 5658 5658 5658 5658 5658
5670 5669 5668 5667 5665 5663 5661 5660 5658 5655 5652 5650 5647 5645 5642 5640 5638 5636 5635 5638 5640 5646 5650 5651 5652 5652 5653 5654 5655 5655 5655 5654 5654 5654 5654 5654 5654 5653 5653 5653 5653 5653 5653
5663 5663 5662 5660 5659 5658 5657 5656 5654 5651 5649 5645 5643 5641 5639 5637 5635 5633 5630 5631 5632 5637 5641 5644 5646 5646 5647 5648 5649 5650 5649 5649 5649 5649 5649 5649 5648 5648 5648 5648 5648 5648 5648
5659 5658 5657 5656 5655 5653 5652 5651 5649 5646 5644 5641 5639 5637 5635 5633 5632 5630 5627 5625 5624 5627 5630 5634 5638 5640 5641 5642 5643 5643 5643 5643 5644 5643 5643 5643 5642 5642 5642 5642 5642 5642 5642
5655 5654 5652 5651 5649 5648 5647 5646 5643 5641 5639 5636 5634 5632 5630 5629 5628 5626 5624 5622 5619 5618 5621 5626 5628 5633 5634 5635 5636 5637 5637 5638 5637 5637 5637 5636 5637 5637 5636 5636 5636 5636 5636
5650 5648 5647 5645 5644 5643 5642 5640 5638 5637 5634 5631 5628 5626 5624 5623 5622 5621 5620 5619 5617 5615 5615 5619 5621 5625 5627 5629 5630 5630 5630 5631 5631 5630 5630 5630 5630 5631 5630 5630 5629 5630 5630
5645 5643 5641 5639 5638 5637 5636 5634 5632 5631 5628 5625 5623 5621 5619 5618 5616 5616 5615 5614 5612 5610 5609 5612 5614 5617 5618 5620 5621 5623 5623 5623 5624 5624 5624 5624 5624 5624 5624 5624 5623 5624 5624
5640 5638 5636 5634 5633 5632 5630 5628 5626 5625 5623 5620 5618 5616 5614 5613 5611 5610 5609 5608 5606 5605 5603 5604 5605 5607 5609 5612 5613 5614 5615 5616 5616 5617 5617 5618 5617 5617 5617 5617 5617 5617 5617
5634 5632 5630 5628 5627 5625 5624 5622 5620 5619 5617 5615 5613 5610 5609 5607 5605 5604 5602 5601 5600 5600 5598 5596 5597 5599 5600 5602 5603 5605 5607 5607 5609 5611 5611 5611 5611 5611 5611 5611 5611 5611 5611
5629 5626 5624 5622 5621 5619 5617 5616 5614 5613 5611 5609 5608 5606 5604 5602 5600 5598 5597 5595 5594 5592 5591 5590 5590 5590 5591 5593 5594 5595 5596 5598 5600 5602 5603 5604 5605 5605 5605 5605 5605 5605 5605
5624 5621 5618 5615 5614 5613 5611 5609 5608 5607 5605 5603 5602 5601 5600 5598 5597 5594 5593 5590 5588 5586 5584 5583 5583 5583 5583 5584 5585 5587 5588 5589 5591 5593 5594 5596 5597 5597 5598 5599 5599 5599 5599
5618 5615 5611 5608 5607 5606 5604 5603 5601 5599 5598 5597 5596 5595 5595 5593 5592 5590 5589 5588 5585 5582 5579 5578 5577 5577 5577 5578 5579 5580 5580 5580 5582 5586 5586 5587 5589 5589 5591 5593 5593 5593 5593
5612 5608 5605 5602 5599 5598 5597 5596 5595 5593 5592 5590 5589 5588 5589 5589 5586 5585 5584 5584 5582 5581 5579 5576 5574 5574 5574 5575 5574 5574 5574 5574 5575 5579 5578 5579 5582 5582 5585 5587 5587 5587 5587
5607 5603 5599 5597 5594 5593 5592 5590 5589 5587 5585 5584 5584 5583 5582 5581 5581 5580 5579 5578 5577 5576 5576 5574 5573 5573 5573 5572 5571 5570 5569 5569 5570 5572 5572 5571 5574 5576 5579 5580 5581 5581 5581
5602 5599 5595 5593 5590 5588 5587 5585 5583 5581 5579 5579 5579 5579 5578 5577 5577 5575 5573 5572 5572 5572 5573 5572 5571 5570 5569 5568 5567 5565 5563 5562 5562 5564 5565 5565 5567 5568 5571 5572 5574 5574 5574
5599 5596 5593 5590 5588 5585 5583 5581 5579 5576 5574 5574 5574 5574 5573 5573 5572 5571 5569 5567 5566 5566 5566 5566 5565 5565 5564 5563 5563 5561 5560 5557 5556 5557 5560 5559 5560 5560 5561 5564 5565 5566 5566